LUDI TANCE-4 01A

Last updated on Thu Nov 21 2024 00:02:45 GMT+0000 (Coordinated Universal Time)

1 57624U 23120A 24325.54732083 -.00000183 00000+0 00000+0 0 9991 2 57624 15.5782 208.0087 0003935 72.3329 66.3473 1.00278721 4792
UTC large
Height (km)
Speed (km/s)
/
Latitude / Longitude
Inclination (degrees)
Orbital Period (minutes)
Azimuth
Elevation
Range (km)
Doppler Factor

Next 0 passes for location: London (51.5072 / 0.1276)

Sorry there are no passes over London.